Regional Weather Roundup
Issued by NWS

Home | Current Version | Previous Version | Text Only | Print | Product List | Glossary Off
Versions: 1 2 3 4 5 6 7 8 9 10 11 12 13 14 15 16 17 18 19 20 21 22 23 24 25 26 27 28 29 30 31 32 33 34 35 36 37 38 39 40 41 42 43 44 45 46 47 48 49 50

000
ASUS43 KLMK 192010
RWRKY
KENTUCKY REGIONAL WEATHER ROUNDUP
NATIONAL WEATHER SERVICE LOUISVILLE KY
400 PM EDT FRI SEP 19 2014

NOTE "FAIR" INDICATES FEW OR NO CLOUDS BELOW 12,000 FEET
WITH NO SIGNIFICANT WEATHER AND/OR OBSTRUCTIONS TO VISIBILITY.

KYZ001>023-026-027-061>063-070>075-192100-
WESTERN AND SOUTH CENTRAL KENTUCKY

CITY           SKY/WX    TMP DP  RH WIND       PRES   REMARKS
PADUCAH        SUNNY     85  58  39 VRB5      30.01F
HENDERSON      SUNNY     79  54  41 SE6       30.03F
OWENSBORO      SUNNY     81  54  39 NE6       30.05F
HOPKINSVILLE   MOSUNNY   82  60  47 E5        30.02F
BOWLING GREEN  SUNNY     80  58  46 SE6       30.05F
GLASGOW        PTSUNNY   82  56  42 S6        30.06F
$$

KYZ024-025-028>034-038-045-046-053-192100-
NORTH CENTRAL KENTUCKY

CITY           SKY/WX    TMP DP  RH WIND       PRES   REMARKS
LOUISVILLE/SDF MOSUNNY   79  53  40 E9        30.07F
LOUISVILLE/LOU SUNNY     78  51  38 SE6       30.08F
FORT KNOX      MOSUNNY   76  56  48 VRB3      30.07F
$$

KYZ035>037-039>044-047>052-055>060-089>105-192100-
NORTHEAST KENTUCKY

CITY           SKY/WX    TMP DP  RH WIND       PRES   REMARKS
LEXINGTON      SUNNY     78  55  44 NE6       30.10F
COVINGTON      MOSUNNY   75  47  36 E9        30.11F
FRANKFORT      SUNNY     76  53  44 E9        30.09F
$$

KYZ054-064>069-076>088-106>120-192100-
SOUTHEAST KENTUCKY

CITY           SKY/WX    TMP DP  RH WIND       PRES   REMARKS
JACKSON        MOSUNNY   78  60  53 CALM      30.11F
LONDON         MOSUNNY   80  57  45 S3        30.09F
SOMERSET       MOSUNNY   79  54  41 SW7       30.09F
MIDDLESBORO    MOSUNNY   81  60  49 SW3       30.09F
MONTICELLO     PTCLDY    81  59  47 CALM      30.09F
$$



USA.gov is the U.S. government's official web portal to all federal, state and local government web resources and services.